Flag for Australia

Past Weather in Mount Isa, Queensland, Australia — Yesterday and Last 2 Weeks

Now
48 °F

Clear.


Feels Like: 45 °F
Forecast: 71 / 46 °F
Wind: 8 mph from South

Location: Mount Isa Amo

Current Time: Jul 13, 2020 at 6:30:21 am

Latest Report: Jul 13, 2020 at 6:00 am


Visibility: N/A

Pressure: 30.18 "Hg

Humidity: 58%

Dew Point: 34 °F

Location of Mount IsaLocation

Past Weather in Mount Isa — Graph

°F

Mount Isa Temperature Yesterday

Maximum temperature yesterday: 72 °F (at 3:00 pm)
Minimum temperature yesterday: 54 °F (at 7:00 am)
Average temperature yesterday: 62 °F

High & Low Weather Summary for the Past Weeks

 TemperatureHumidityPressure
High86 °F (Jul 2, 3:30 pm)76% (Jul 10, 7:00 am)30.30 "Hg (Jul 10, 7:00 am)
Low45 °F (Jun 28, 7:30 am)13% (Jul 7, 3:30 pm)29.95 "Hg (Jul 1, 3:00 pm)
Average65 °F37%30.10 "Hg
* Reported Jun 28 5:00 am — Jul 13 5:00 am, Mount Isa. Weather by CustomWeather, © 2020

Note: Actual official high and low records may vary slightly from our data, if they occured in-between our weather recording intervals... More about our weather records

Mount Isa Weather History for the Previous 24 Hours

Scroll right to see more
 ConditionsComfort  
Time TempWeatherWind HumidityBarometerVisibility
5:00 am
Mon, Jul 13
48 °FClear.6 mph54%30.15 "HgN/A
4:30 am48 °FClear.8 mph54%30.15 "HgN/A
4:00 am50 °FClear.8 mph50%30.15 "HgN/A
3:30 am50 °FClear.9 mph50%30.15 "HgN/A
3:00 am52 °FClear.9 mph47%30.15 "HgN/A
2:30 am52 °FClear.9 mph44%30.15 "HgN/A
2:00 am52 °FClear.10 mph44%30.15 "HgN/A
1:30 am52 °FClear.10 mph44%30.15 "HgN/A
1:00 am54 °FClear.10 mph41%30.18 "HgN/A
12:30 am55 °FClear.9 mph38%30.18 "HgN/A
12:00 am55 °FClear.7 mph41%30.18 "HgN/A
11:30 pm
Sun, Jul 12
54 °FClear.7 mph41%30.18 "HgN/A
11:00 pm55 °FClear.6 mph38%30.18 "HgN/A
10:30 pm57 °FClear.7 mph33%30.18 "HgN/A
10:00 pm55 °FClear.7 mph36%30.18 "HgN/A
9:30 pm57 °FClear.7 mph31%30.18 "HgN/A
9:00 pm59 °FClear.7 mph31%30.15 "HgN/A
8:30 pm61 °FClear.8 mph29%30.15 "HgN/A
8:00 pm61 °FClear.8 mph27%30.12 "HgN/A
7:30 pm63 °FClear.7 mph27%30.12 "HgN/A
7:00 pm63 °FClear.9 mph27%30.09 "HgN/A
6:30 pm66 °FClear.12 mph24%30.09 "HgN/A
6:00 pm68 °FSunny.14 mph21%30.07 "HgN/A
5:30 pm70 °FSunny.10 mph20%30.07 "HgN/A
5:00 pm70 °FSunny.17 mph20%30.07 "HgN/A
4:30 pm70 °FSunny.14 mph20%30.07 "HgN/A
4:00 pm70 °FSunny.12 mph20%30.07 "HgN/A
3:30 pm70 °FSunny.12 mph21%30.07 "HgN/A
3:00 pm72 °FSunny.13 mph22%30.07 "HgN/A
2:30 pm70 °FSunny.16 mph23%30.09 "HgN/A
2:00 pm70 °FSunny.14 mph23%30.09 "HgN/A
1:30 pm68 °FSunny.15 mph24%30.12 "HgN/A
1:00 pm68 °FSunny.17 mph26%30.12 "HgN/A
12:30 pm68 °FSunny.17 mph26%30.15 "HgN/A
12:00 pm66 °FSunny.16 mph28%30.15 "HgN/A
11:30 am64 °FSunny.16 mph28%30.18 "HgN/A
11:00 am63 °FSunny.18 mph32%30.18 "HgN/A
10:00 am59 °FSunny.21 mph36%30.18 "HgN/A
9:30 am59 °FSunny.22 mph39%30.18 "HgN/A
9:00 am57 °FSunny.22 mph39%30.18 "HgN/A
8:30 am55 °FSunny.14 mph41%30.15 "HgN/A
8:00 am54 °FSunny.15 mph44%30.15 "HgN/A
7:30 am54 °FSunny.10 mph44%30.15 "HgN/A
7:00 am54 °FClear.16 mph47%30.12 "HgN/A
6:30 am55 °FClear.16 mph44%30.12 "HgN/A
6:00 am55 °FClear.17 mph47%30.12 "HgN/A
Weather by CustomWeather, © 2020

See weather overview